NOAA 16 DEB, 41397

Orbit data source: Space-Track

NOAA 16 DEB, 41397 is space debris in SSO originally from a launch on Thu, 21 Sep 2000 UTC launched from the Air Force Western Test Range (AFWTR). Debris objects in space refer to the collection of defunct objects orbiting the Earth. Examples of debris include non-operational satellites, rocket bodies, and fragments generated from explosions, collisions, or faulty payload assembly.

Loading next visibility...
Identifier
41397, 2000-055KA
Orbit
SSO
Country
Flag of USUS
Related business
Manufacturer
Unknown
Mission
Spacecraft
Bus & Motor
Unknown
Mass
Unknown
Launch date (UTC)
2000-09-21 (25 years ago)
Launch vehicle
Unknown
Launch site
Air Force Western Test Range (AFWTR)
Object type
Payload
Rocket body
Debris
Shape & HBR
Unknown shape, 0.1 m
Radar Cross Section
Small (<0.1 m²)

Expand to show TLE details & history
Last TLE update: 20 hours ago

TLE from 20 hours ago
0 NOAA 16 DEB
1 41397U 00055KA  26071.42575931  .00008123  00000-0  20497-2 0  9994
2 41397  98.9377 249.4699 0029398  41.9220 318.4216 14.51074729521587
Epoch: 2026-03-12T10:13Z
TLE epoch observation values (Epoch: 2026-03-12T10:13:05.604Z)
Latitude
-0.00004°
Longitude
-73.87927°
Altitude
709.5 km
Speed
7.509 km/s
True Right ascension
16h 37m 52s
True Declination
0° 00' 00"
Sunlit
Object was in daylight at epoch
Visualization orbit readout
Latitude
Unknown
Longitude
Unknown
Altitude
Unknown
Speed
Unknown
Apparent Right ascension
Unknown
Apparent Declination
Unknown
Sunlit
N/A
Visualization observer readout
Local Sidereal Time
10:29:05
Azimuth
Unknown
Elevation
Unknown
Doppler factor
Unknown
Orbital elements
Apogee altitude
740.134 km
Perigee altitude
698.404 km
Semi-major axis
7,097.406 km
Eccentricity
0.00294
Inclination
98.9377°
RAAN
249.4699°
Arg. of periapsis
41.922°
True anomaly
318.19742°
Mean anomaly
318.4216°
Eccentric anomaly
318.30957°
Mean motion
3.62989 °/min
Orbital period
99.18 mins
BSTAR
0.0020497
Loading maneuver chart data...
Computing Atmospheric mass density...
Loading historical data...
Loading historical data...
Loading historical data...
Loading historical data...
Loading historical data...
Loading historical data...
Loading historical data...

Documentation

Showing up to 5 results
|